West Bend, WI

11:02 PM CDT on June 28, 2017 (GMT -0500)
West Bend Municipal

Weather History for KETB - October, 2012

Change the Weather History Date:

Friday, October 5, 2012

  Actual Average Record
Temperature  
Mean Temperature 44 °F -  
Max Temperature 51 °F 63 °F 82 °F (2005)
Min Temperature 37 °F 43 °F 25 °F (1980)
Degree Days  
Heating Degree Days 21    
Moisture  
Dew Point 28 °F    
Average Humidity 54    
Maximum Humidity 75    
Minimum Humidity 35    
Precipitation  
Precipitation 0.00 in - - ()
Sea Level Pressure  
Sea Level Pressure 30.04 in    
Wind  
Wind Speed 12 mph (West)    
Max Wind Speed 21 mph    
Max Gust Speed 26 mph    
Visibility 10 miles    
Events      
Averages and records for this station are not official NWS values.
T = Trace of Precipitation, MM = Missing Value Source: NWS Daily Summary

Daily Weather History Graph

Daily Weather History Graph

Search for Another Location

Airport or City:

Trip Planner

Search our weather history database for the weather conditions in past years. The results will help you decide how hot, cold, wet, or windy it might be!

Date:

Astronomy

Oct. 05, 2012 Rise Set
Actual Time 6:55 AM CDT 6:25 PM CDT
Civil Twilight 6:26 AM CDT 6:54 PM CDT
Nautical Twilight 5:53 AM CDT 7:27 PM CDT
Astronomical Twilight 5:20 AM CDT 8:00 PM CDT
Moon 9:40 PM CDT (10/5) 12:10 PM CDT (10/5)
Length of Visible Light 12h 27m
Length of Day
11h 30m
Waning Gibbous, 74% of the Moon is Illuminated
Oct 5
Waning Gibbous
Oct 8
Last Quarter
Oct 15
New
Oct 21
First Quarter
Oct 29
Full

Hourly Weather History & Observations

Time (CDT) Temp. Windchill Dew Point Humidity Pressure Visibility Wind Dir Wind Speed Gust Speed Precip Events Conditions
12:15 AM 46.4 °F 40.4 °F 32.0 °F 57% 30.08 in 10.0 mi West 13.8 mph 23.0 mph N/A   Clear
12:35 AM 44.6 °F 38.1 °F 32.0 °F 61% 30.08 in 10.0 mi West 13.8 mph 18.4 mph N/A   Clear
12:55 AM 44.6 °F 38.4 °F 32.0 °F 61% 30.08 in 10.0 mi West 12.7 mph 17.3 mph N/A   Clear
1:15 AM 44.6 °F 38.1 °F 32.0 °F 61% 30.08 in 10.0 mi West 13.8 mph 19.6 mph N/A   Clear
1:55 AM 42.8 °F 35.8 °F 32.0 °F 66% 30.08 in 10.0 mi West 13.8 mph 17.3 mph N/A   Clear
2:15 AM 42.8 °F 36.2 °F 32.0 °F 66% 30.08 in 10.0 mi West 12.7 mph - N/A   Clear
2:35 AM 42.8 °F 36.2 °F 32.0 °F 66% 30.08 in 10.0 mi West 12.7 mph 17.3 mph N/A   Clear
2:55 AM 42.8 °F 37.5 °F 32.0 °F 66% 30.08 in 10.0 mi West 9.2 mph - N/A   Clear
3:15 AM 42.8 °F 36.2 °F 32.0 °F 66% 30.08 in 10.0 mi West 12.7 mph 19.6 mph N/A   Clear
3:35 AM 42.8 °F 37.5 °F 32.0 °F 66% 30.08 in 10.0 mi West 9.2 mph - N/A   Clear
3:55 AM 41.0 °F 34.7 °F 30.2 °F 65% 30.09 in 10.0 mi West 10.4 mph - N/A   Clear
4:15 AM 39.2 °F 33.0 °F 32.0 °F 75% 30.08 in 10.0 mi West 9.2 mph - N/A   Clear
4:35 AM 39.2 °F 32.5 °F 32.0 °F 75% 30.09 in 10.0 mi West 10.4 mph - N/A   Clear
4:55 AM 39.2 °F 32.5 °F 30.2 °F 70% 30.09 in 10.0 mi West 10.4 mph - N/A   Clear
5:15 AM 37.4 °F 30.8 °F 30.2 °F 75% 30.09 in 10.0 mi WSW 9.2 mph - N/A   Clear
5:35 AM 37.4 °F 30.8 °F 30.2 °F 75% 30.08 in 10.0 mi WSW 9.2 mph - N/A   Clear
5:55 AM 37.4 °F 31.4 °F 30.2 °F 75% 30.08 in 10.0 mi West 8.1 mph - N/A   Clear
6:35 AM 37.4 °F 30.8 °F 30.2 °F 75% 30.08 in 10.0 mi West 9.2 mph - N/A   Clear
6:55 AM 37.4 °F 32.1 °F 30.2 °F 75% 30.09 in 10.0 mi WSW 6.9 mph - N/A   Clear
7:15 AM 37.4 °F 32.1 °F 30.2 °F 75% 30.09 in 10.0 mi West 6.9 mph - N/A   Clear
7:35 AM 37.4 °F 31.4 °F 30.2 °F 75% 30.08 in 10.0 mi WSW 8.1 mph - N/A   Clear
7:55 AM 39.2 °F 32.5 °F 30.2 °F 70% 30.09 in 10.0 mi WSW 10.4 mph - N/A   Clear
8:15 AM 41.0 °F 34.7 °F 30.2 °F 65% 30.09 in 10.0 mi WSW 10.4 mph 17.3 mph N/A   Clear
8:35 AM 41.0 °F 33.9 °F 30.2 °F 65% 30.08 in 10.0 mi West 12.7 mph - N/A   Clear
8:55 AM 42.8 °F 36.2 °F 32.0 °F 66% 30.08 in 10.0 mi West 12.7 mph - N/A   Clear
9:15 AM 44.6 °F 37.4 °F 32.0 °F 61% 30.08 in 10.0 mi West 16.1 mph 20.7 mph N/A   Clear
9:35 AM 44.6 °F 37.8 °F 30.2 °F 57% 30.08 in 10.0 mi West 15.0 mph 21.9 mph N/A   Clear
9:55 AM 44.6 °F 37.4 °F 30.2 °F 57% 30.08 in 10.0 mi West 16.1 mph 24.2 mph N/A   Clear
10:15 AM 46.4 °F 40.4 °F 30.2 °F 53% 30.07 in 10.0 mi West 13.8 mph 21.9 mph N/A   Clear
10:35 AM 46.4 °F 40.4 °F 30.2 °F 53% 30.06 in 10.0 mi West 13.8 mph 24.2 mph N/A   Clear
10:55 AM 50.0 °F - 30.2 °F 47% 30.06 in 10.0 mi West 17.3 mph 21.9 mph N/A   Clear
11:15 AM 48.2 °F - 28.4 °F 46% 30.05 in 10.0 mi West 12.7 mph 20.7 mph N/A   Clear
11:35 AM 50.0 °F - 30.2 °F 47% 30.06 in 10.0 mi WSW 12.7 mph 18.4 mph N/A   Clear
11:55 AM 51.8 °F - 30.2 °F 44% 30.05 in 10.0 mi SW 10.4 mph 21.9 mph N/A   Clear
12:35 PM 51.8 °F - 28.4 °F 41% 30.03 in 10.0 mi West 11.5 mph 21.9 mph N/A   Clear
12:55 PM 51.8 °F - 28.4 °F 41% 30.02 in 10.0 mi WSW 12.7 mph - N/A   Clear
1:15 PM 51.8 °F - 28.4 °F 41% 30.01 in 10.0 mi SW 8.1 mph 19.6 mph N/A   Clear
1:35 PM 51.8 °F - 26.6 °F 38% 30.00 in 10.0 mi WSW 13.8 mph 21.9 mph N/A   Clear
1:55 PM 51.8 °F - 26.6 °F 38% 30.00 in 10.0 mi West 10.4 mph 17.3 mph N/A   Clear
2:15 PM 51.8 °F - 24.8 °F 35% 30.00 in 10.0 mi West 11.5 mph 20.7 mph N/A   Clear
2:35 PM 50.0 °F - 26.6 °F 40% 30.00 in 10.0 mi WSW 11.5 mph 21.9 mph N/A   Clear
3:15 PM 50.0 °F - 23.0 °F 35% 30.00 in 10.0 mi WSW 16.1 mph 23.0 mph N/A   Clear
3:55 PM 50.0 °F - 23.0 °F 35% 30.01 in 10.0 mi West 15.0 mph 26.5 mph N/A   Clear
4:15 PM 50.0 °F - 23.0 °F 35% 30.01 in 10.0 mi West 18.4 mph 25.3 mph N/A   Clear
4:35 PM 50.0 °F - 23.0 °F 35% 30.00 in 10.0 mi West 19.6 mph 25.3 mph N/A   Clear
4:55 PM 48.2 °F - 23.0 °F 37% 30.00 in 10.0 mi West 16.1 mph 23.0 mph N/A   Clear
5:15 PM 46.4 °F 38.7 °F 23.0 °F 40% 30.00 in 10.0 mi West 20.7 mph 25.3 mph N/A   Clear
5:55 PM 46.4 °F 39.8 °F 23.0 °F 40% 30.01 in 10.0 mi WSW 16.1 mph 20.7 mph N/A   Clear
6:15 PM 44.6 °F 39.2 °F 23.0 °F 43% 30.01 in 10.0 mi WSW 10.4 mph 18.4 mph N/A   Clear
6:35 PM 44.6 °F 38.1 °F 23.0 °F 43% 30.01 in 10.0 mi WSW 13.8 mph - N/A   Clear
6:55 PM 44.6 °F 38.8 °F 23.0 °F 43% 30.01 in 10.0 mi WSW 11.5 mph 18.4 mph N/A   Clear
7:15 PM 44.6 °F 37.2 °F 23.0 °F 43% 30.01 in 10.0 mi WSW 17.3 mph 20.7 mph N/A   Clear
7:55 PM 44.6 °F 38.1 °F 23.0 °F 43% 30.00 in 10.0 mi West 13.8 mph 20.7 mph N/A   Clear
8:15 PM 42.8 °F 36.6 °F 23.0 °F 46% 30.00 in 10.0 mi WSW 11.5 mph 17.3 mph N/A   Clear
8:35 PM 42.8 °F 36.6 °F 23.0 °F 46% 30.00 in 10.0 mi WSW 11.5 mph - N/A   Clear
8:55 PM 42.8 °F 36.2 °F 24.8 °F 49% 30.00 in 10.0 mi WSW 12.7 mph 17.3 mph N/A   Clear
9:15 PM 42.8 °F 37.5 °F 24.8 °F 49% 30.00 in 10.0 mi WSW 9.2 mph - N/A   Clear
9:35 PM 42.8 °F 37.0 °F 24.8 °F 49% 30.00 in 10.0 mi West 10.4 mph - N/A   Clear
9:55 PM 42.8 °F 37.0 °F 26.6 °F 53% 30.00 in 10.0 mi West 10.4 mph - N/A   Mostly Cloudy
10:15 PM 42.8 °F 37.0 °F 26.6 °F 53% 30.00 in 10.0 mi West 10.4 mph - N/A   Mostly Cloudy
10:35 PM 42.8 °F 38.0 °F 26.6 °F 53% 30.00 in 10.0 mi West 8.1 mph - N/A   Overcast
10:55 PM 44.6 °F 40.7 °F 26.6 °F 49% 30.00 in 10.0 mi West 6.9 mph - N/A   Overcast
11:15 PM 44.6 °F 38.8 °F 26.6 °F 49% 30.00 in 10.0 mi West 11.5 mph - N/A   Overcast
11:35 PM 42.8 °F 34.8 °F 26.6 °F 53% 30.01 in 10.0 mi WNW 17.3 mph 20.7 mph N/A   Overcast
11:55 PM 42.8 °F 36.2 °F 26.6 °F 53% 30.01 in 10.0 mi WNW 12.7 mph 26.5 mph N/A   Overcast